sat.trackr.live / text

‹ back to catalog

STARLINK-30278

NORAD 57668 · 2023-124F

PAYLOAD ACTIVE UNKNOWN

§ Identity

Operator
Country
US
Launch date
2023-08-22
Launch site
AFWTR
Launch vehicle
Mass (kg)
RCS (m²)

Purposes: comms

External: N2YO · Heavens-Above · Gunter

§ Orbital elements

Epoch: 2026-09-20T13:36:03.478752Z

Period
93.85 min
Inclination
53.1624°
Eccentricity
0.0001272
Mean motion
15.34389615 rev/d
Perigee alt
461.9 km
Apogee alt
463.6 km
Semi-major
6,840.9 km
B*
2.5016e-5
RAAN
19.3849°
Arg perigee
81.3946°
Mean anomaly
278.7201°
Rev number
17,343

§ Raw data

STARLINK-302781 57668U 23124F   26263.56670693  .00000469  00000+0  25016-4 0  99912 57668  53.1624  19.3849 0001272  81.3946 278.7201 15.34389615173432

JSON: /api/v1/satellites/57668 · /tle

For live sub-satellite position, see the globe view (requires WebGL).

§ Visibility from observer

Set your observer location to see the next 7 days of passes ≥ 10°. The values pass through the URL so the page stays shareable.

No JS? Fill the form by hand. The geolocation button needs JavaScript.